GFSFLT1_prec_precacc6_132.txt.gz
Total_Precipitation_Accumulation
0.00 0.00 0.00 0.00 0.00 0.00 0.00 0.00 0.00 0.00 0.00 0.00 0.00 0.00 0.00 0.00 0.00 0.00 0.00 0.00 0.00 0.00 0.00 0.00 0.00 0.00 0.00 0.00 0.00 0.00 0.00 0.00
0.00 0.00 0.00 0.00 0.00 0.00 0.00 0.00 0.00 0.00 0.00 0.00 0.00 0.00 0.00 0.00 0.00 0.00 0.00 0.00 0.00 0.00 0.00 0.00 0.00 0.00 0.00 0.00 0.00 0.00 0.00 0.00
0.00 0.00 0.00 0.00 0.00 0.00 0.00 0.00 0.00 0.00 0.00 0.00 0.00 0.00 0.00 0.00 0.00 0.00 0.00 0.00 0.00 0.00 0.00 0.00 0.00 0.00 0.00 0.00 0.00 0.00 0.00 0.00
0.00 0.00 0.00 0.00 0.00 0.00 0.00 0.00 0.00 0.00 0.00 0.00 0.00 0.05 0.05 0.02 0.00 0.00 0.00 0.00 0.00 0.00 0.00 0.00 0.00 0.00 0.00 0.00 0.00 0.00 0.00 0.00
0.00 0.00 0.00 0.00 0.00 0.00 0.00 0.00 0.00 0.00 0.00 0.00 0.00 0.00 0.00 0.00 0.00 0.00 0.00 0.00 0.01 0.01 0.01 0.01 0.01 0.00 0.00 0.00 0.01 0.01 0.01 0.01
0.00 0.00 0.00 0.00 0.00 0.00 0.00 0.00 0.00 0.00 0.00 0.00 0.00 0.00 0.00 0.00 0.00 0.00 0.00 0.00 0.00 0.01 0.01 0.02 0.02 0.01 0.01 0.01 0.01 0.02 0.02 0.02
0.00 0.00 0.00 0.00 0.00 0.00 0.00 0.00 0.00 0.00 0.00 0.00 0.00 0.00 0.00 0.00 0.00 0.01 0.02 0.02 0.01 0.01 0.02 0.02 0.02 0.02 0.02 0.02 0.01 0.02 0.03 0.03
0.00 0.00 0.00 0.00 0.00 0.00 0.00 0.00 0.00 0.00 0.00 0.00 0.00 0.00 0.00 0.00 0.00 0.01 0.01 0.00 0.00 0.00 0.02 0.02 0.02 0.03 0.03 0.03 0.02 0.02 0.02 0.02
0.03 0.01 0.00 0.00 0.00 0.00 0.00 0.00 0.00 0.01 0.02 0.05 0.04 0.03 0.07 0.04 0.02 0.00 0.00 0.00 0.00 0.00 0.01 0.01 0.02 0.02 0.02 0.03 0.03 0.02 0.02 0.03
0.09 0.04 0.02 0.01 0.00 0.00 0.00 0.01 0.03 0.08 0.13 0.14 0.11 0.12 0.16 0.07 0.05 0.07 0.02 0.00 0.00 0.00 0.01 0.02 0.02 0.03 0.03 0.03 0.03 0.03 0.03 0.02
0.26 0.22 0.15 0.06 0.03 0.03 0.03 0.08 0.11 0.18 0.28 0.26 0.22 0.16 0.22 0.16 0.13 0.08 0.04 0.00 0.00 0.02 0.02 0.02 0.01 0.02 0.02 0.03 0.03 0.03 0.03 0.03
0.42 0.36 0.29 0.18 0.10 0.10 0.09 0.12 0.15 0.20 0.24 0.21 0.17 0.19 0.26 0.23 0.19 0.14 0.11 0.07 0.03 0.04 0.04 0.02 0.01 0.02 0.02 0.02 0.02 0.02 0.02 0.03
0.87 0.57 0.23 0.13 0.09 0.05 0.06 0.07 0.09 0.11 0.16 0.19 0.14 0.12 0.14 0.19 0.24 0.22 0.16 0.14 0.14 0.14 0.07 0.01 0.01 0.01 0.01 0.02 0.01 0.01 0.02 0.02
0.96 0.75 0.25 0.06 0.02 0.01 0.01 0.02 0.05 0.07 0.08 0.12 0.15 0.13 0.14 0.17 0.17 0.23 0.16 0.13 0.10 0.09 0.05 0.01 0.00 0.00 0.01 0.01 0.02 0.03 0.03 0.03
0.84 0.56 0.13 0.10 0.12 0.03 0.02 0.01 0.02 0.02 0.02 0.04 0.06 0.07 0.07 0.15 0.17 0.13 0.11 0.10 0.12 0.14 0.10 0.05 0.01 0.00 0.00 0.00 0.01 0.02 0.02 0.02
0.47 0.31 0.09 0.02 0.05 0.03 0.01 0.01 0.01 0.01 0.01 0.00 0.00 0.01 0.02 0.01 0.09 0.14 0.08 0.04 0.06 0.10 0.11 0.10 0.04 0.01 0.00 0.00 0.00 0.00 0.00 0.00
0.65 0.35 0.12 0.01 0.00 0.00 0.00 0.00 0.00 0.00 0.01 0.01 0.01 0.01 0.03 0.04 0.03 0.12 0.17 0.18 0.09 0.06 0.07 0.06 0.02 0.01 0.01 0.01 0.00 0.00 0.00 0.00
0.59 0.46 0.23 0.04 0.00 0.00 0.00 0.00 0.00 0.00 0.00 0.00 0.00 0.01 0.02 0.04 0.05 0.09 0.13 0.13 0.34 0.32 0.12 0.03 0.01 0.00 0.01 0.01 0.01 0.00 0.00 0.00
0.17 0.12 0.07 0.03 0.00 0.00 0.00 0.00 0.00 0.00 0.00 0.00 0.00 0.00 0.00 0.01 0.01 0.03 0.10 0.18 0.17 0.12 0.12 0.02 0.00 0.00 0.00 0.00 0.01 0.00 0.00 0.00

GFSFLT1_prec_precacc6_135.txt.gz
Total_Precipitation_Accumulation
0.00 0.00 0.00 0.00 0.00 0.00 0.00 0.00 0.00 0.00 0.00 0.00 0.00 0.00 0.00 0.00 0.00 0.00 0.00 0.00 0.00 0.00 0.00 0.00 0.00 0.00 0.00 0.00 0.00 0.00 0.00 0.00
0.00 0.00 0.00 0.00 0.00 0.00 0.00 0.00 0.00 0.00 0.00 0.00 0.00 0.00 0.00 0.00 0.00 0.00 0.00 0.00 0.00 0.00 0.00 0.00 0.00 0.00 0.00 0.00 0.00 0.00 0.00 0.00
0.00 0.00 0.00 0.00 0.00 0.00 0.00 0.00 0.00 0.00 0.00 0.00 0.00 0.00 0.00 0.00 0.00 0.00 0.00 0.00 0.00 0.00 0.00 0.00 0.00 0.00 0.00 0.00 0.00 0.00 0.00 0.00
0.00 0.00 0.00 0.00 0.00 0.00 0.00 0.00 0.00 0.00 0.00 0.00 0.00 0.00 0.01 0.00 0.00 0.00 0.00 0.00 0.00 0.00 0.00 0.00 0.00 0.00 0.00 0.00 0.00 0.00 0.00 0.00
0.00 0.00 0.00 0.00 0.00 0.00 0.00 0.00 0.00 0.00 0.00 0.00 0.00 0.00 0.00 0.00 0.00 0.00 0.00 0.00 0.00 0.00 0.00 0.00 0.00 0.00 0.00 0.00 0.00 0.00 0.00 0.00
0.01 0.01 0.00 0.00 0.00 0.00 0.00 0.00 0.00 0.00 0.00 0.00 0.00 0.00 0.00 0.00 0.00 0.00 0.00 0.00 0.00 0.00 0.00 0.01 0.01 0.01 0.00 0.00 0.00 0.00 0.00 0.01
0.25 0.05 0.02 0.00 0.00 0.00 0.00 0.00 0.00 0.00 0.00 0.00 0.00 0.00 0.00 0.00 0.00 0.00 0.01 0.02 0.01 0.01 0.01 0.01 0.02 0.01 0.01 0.02 0.00 0.00 0.01 0.00
0.12 0.07 0.05 0.02 0.00 0.00 0.00 0.00 0.00 0.00 0.00 0.00 0.00 0.00 0.00 0.00 0.00 0.00 0.00 0.01 0.01 0.00 0.01 0.01 0.01 0.02 0.02 0.03 0.02 0.01 0.01 0.01
0.17 0.07 0.06 0.04 0.00 0.00 0.00 0.00 0.00 0.00 0.00 0.00 0.00 0.00 0.00 0.00 0.01 0.00 0.00 0.00 0.00 0.00 0.01 0.01 0.01 0.02 0.02 0.03 0.03 0.02 0.01 0.01
0.29 0.16 0.09 0.06 0.02 0.00 0.00 0.00 0.02 0.02 0.02 0.04 0.05 0.07 0.13 0.07 0.04 0.06 0.03 0.01 0.00 0.01 0.02 0.03 0.02 0.03 0.03 0.03 0.05 0.04 0.02 0.02
0.27 0.28 0.16 0.09 0.04 0.03 0.02 0.05 0.09 0.14 0.25 0.24 0.20 0.15 0.18 0.13 0.15 0.11 0.08 0.07 0.03 0.06 0.07 0.03 0.02 0.03 0.03 0.04 0.04 0.04 0.03 0.03
0.30 0.43 0.31 0.22 0.10 0.09 0.05 0.08 0.13 0.22 0.27 0.30 0.34 0.38 0.40 0.26 0.26 0.25 0.25 0.26 0.22 0.18 0.14 0.08 0.06 0.06 0.03 0.05 0.04 0.04 0.04 0.03
0.64 0.78 0.35 0.28 0.27 0.14 0.06 0.07 0.13 0.15 0.21 0.27 0.25 0.28 0.34 0.30 0.27 0.28 0.29 0.28 0.31 0.42 0.29 0.12 0.05 0.03 0.02 0.03 0.03 0.03 0.03 0.02
0.88 1.42 0.73 0.21 0.14 0.09 0.02 0.02 0.09 0.20 0.21 0.26 0.30 0.29 0.20 0.18 0.18 0.21 0.21 0.23 0.23 0.29 0.29 0.20 0.12 0.05 0.02 0.01 0.01 0.01 0.02 0.02
0.96 1.09 0.90 0.27 0.20 0.10 0.02 0.02 0.08 0.18 0.22 0.46 0.30 0.34 0.28 0.25 0.24 0.24 0.21 0.21 0.27 0.28 0.27 0.25 0.17 0.07 0.03 0.01 0.00 0.01 0.01 0.01
0.55 0.69 0.78 0.37 0.30 0.24 0.10 0.08 0.14 0.15 0.16 0.15 0.11 0.11 0.12 0.12 0.12 0.12 0.19 0.22 0.18 0.22 0.27 0.29 0.21 0.10 0.03 0.01 0.00 0.00 0.00 0.00
0.54 0.53 0.42 0.17 0.07 0.05 0.03 0.05 0.06 0.07 0.06 0.02 0.02 0.02 0.02 0.04 0.03 0.04 0.04 0.11 0.16 0.17 0.20 0.15 0.18 0.13 0.11 0.07 0.02 0.00 0.00 0.00
0.32 0.42 0.36 0.20 0.03 0.01 0.00 0.00 0.00 0.00 0.01 0.01 0.02 0.02 0.01 0.02 0.05 0.01 0.06 0.13 0.37 0.37 0.21 0.14 0.12 0.08 0.15 0.19 0.14 0.00 0.00 0.00
0.06 0.09 0.08 0.07 0.07 0.01 0.00 0.00 0.00 0.00 0.00 0.00 0.00 0.00 0.01 0.01 0.03 0.06 0.03 0.09 0.12 0.15 0.20 0.14 0.06 0.07 0.08 0.01 0.01 0.00 0.00 0.00

GFSFLT1_prec_precacc6_138.txt.gz
Total_Precipitation_Accumulation
0.00 0.00 0.00 0.00 0.00 0.00 0.00 0.00 0.00 0.00 0.00 0.00 0.00 0.00 0.00 0.00 0.00 0.00 0.00 0.00 0.00 0.00 0.00 0.00 0.00 0.00 0.00 0.00 0.00 0.00 0.00 0.00
0.00 0.00 0.00 0.00 0.00 0.00 0.00 0.00 0.00 0.00 0.00 0.00 0.00 0.00 0.00 0.00 0.00 0.00 0.00 0.00 0.00 0.00 0.00 0.00 0.00 0.00 0.00 0.00 0.00 0.00 0.00 0.00
0.00 0.00 0.00 0.00 0.00 0.00 0.00 0.00 0.00 0.00 0.00 0.00 0.00 0.00 0.00 0.00 0.00 0.00 0.00 0.00 0.00 0.00 0.00 0.00 0.00 0.00 0.00 0.00 0.00 0.00 0.00 0.00
0.00 0.00 0.00 0.00 0.00 0.00 0.00 0.00 0.00 0.00 0.00 0.00 0.00 0.00 0.01 0.00 0.00 0.00 0.00 0.00 0.00 0.00 0.00 0.00 0.00 0.00 0.00 0.00 0.00 0.00 0.00 0.00
0.00 0.00 0.00 0.00 0.00 0.00 0.00 0.00 0.00 0.00 0.00 0.00 0.00 0.00 0.00 0.00 0.00 0.00 0.00 0.00 0.00 0.00 0.00 0.00 0.00 0.00 0.00 0.00 0.00 0.00 0.00 0.00
0.05 0.10 0.03 0.00 0.00 0.00 0.00 0.00 0.00 0.00 0.00 0.00 0.00 0.00 0.00 0.00 0.00 0.00 0.00 0.00 0.00 0.00 0.00 0.00 0.00 0.00 0.00 0.00 0.00 0.00 0.00 0.00
0.35 0.17 0.04 0.02 0.03 0.01 0.00 0.00 0.00 0.00 0.00 0.00 0.00 0.00 0.00 0.00 0.01 0.00 0.00 0.01 0.01 0.00 0.00 0.00 0.00 0.00 0.00 0.00 0.00 0.00 0.00 0.00
0.18 0.16 0.08 0.06 0.07 0.03 0.00 0.00 0.00 0.00 0.00 0.00 0.00 0.00 0.00 0.00 0.00 0.00 0.00 0.01 0.01 0.00 0.00 0.00 0.00 0.01 0.01 0.01 0.00 0.00 0.00 0.00
0.18 0.18 0.09 0.09 0.07 0.03 0.00 0.00 0.00 0.00 0.00 0.00 0.00 0.00 0.00 0.00 0.00 0.00 0.00 0.00 0.00 0.00 0.00 0.00 0.00 0.00 0.01 0.01 0.02 0.01 0.00 0.01
0.30 0.29 0.11 0.09 0.07 0.06 0.03 0.00 0.00 0.00 0.00 0.00 0.00 0.00 0.00 0.01 0.00 0.00 0.01 0.01 0.00 0.01 0.01 0.02 0.01 0.01 0.01 0.03 0.03 0.03 0.02 0.01
0.26 0.37 0.18 0.09 0.07 0.08 0.06 0.02 0.02 0.02 0.06 0.07 0.07 0.03 0.02 0.02 0.05 0.05 0.05 0.07 0.03 0.05 0.08 0.03 0.05 0.03 0.06 0.06 0.03 0.03 0.02 0.02
0.20 0.44 0.36 0.18 0.09 0.09 0.07 0.06 0.05 0.07 0.10 0.16 0.28 0.30 0.29 0.13 0.14 0.15 0.17 0.20 0.21 0.16 0.16 0.15 0.18 0.22 0.19 0.13 0.08 0.04 0.03 0.03
0.16 0.41 0.45 0.32 0.27 0.16 0.08 0.04 0.08 0.09 0.11 0.16 0.18 0.23 0.26 0.21 0.17 0.19 0.23 0.24 0.23 0.31 0.32 0.24 0.22 0.23 0.25 0.21 0.15 0.10 0.04 0.03
0.27 0.92 1.02 0.48 0.29 0.18 0.08 0.02 0.05 0.14 0.15 0.20 0.25 0.28 0.18 0.16 0.14 0.14 0.17 0.21 0.23 0.23 0.44 0.51 0.32 0.23 0.18 0.13 0.12 0.08 0.05 0.03
0.41 0.81 1.41 0.65 0.33 0.18 0.07 0.03 0.06 0.16 0.20 0.47 0.34 0.39 0.35 0.25 0.21 0.18 0.20 0.21 0.19 0.19 0.21 0.26 0.31 0.24 0.18 0.15 0.11 0.07 0.03 0.02
0.29 0.55 1.00 0.84 0.53 0.38 0.14 0.08 0.14 0.18 0.19 0.35 0.71 0.34 0.31 0.31 0.31 0.25 0.21 0.24 0.19 0.20 0.24 0.26 0.24 0.18 0.15 0.16 0.16 0.06 0.04 0.01
0.13 0.31 0.48 0.53 0.27 0.16 0.16 0.17 0.17 0.26 0.29 0.21 0.36 0.32 0.21 0.20 0.23 0.26 0.16 0.08 0.11 0.18 0.24 0.25 0.34 0.29 0.28 0.25 0.22 0.12 0.03 0.01
0.03 0.14 0.22 0.29 0.18 0.09 0.04 0.04 0.04 0.08 0.25 0.20 0.11 0.27 0.30 0.16 0.18 0.15 0.16 0.16 0.10 0.09 0.18 0.30 0.40 0.37 0.43 0.60 0.42 0.14 0.08 0.05
0.00 0.01 0.03 0.06 0.11 0.08 0.05 0.00 0.00 0.00 0.01 0.01 0.05 0.03 0.06 0.05 0.07 0.09 0.05 0.10 0.08 0.08 0.12 0.17 0.18 0.25 0.28 0.43 0.90 0.50 0.09 0.06

GFSFLT1_prec_precacc6_141.txt.gz
Total_Precipitation_Accumulation
0.00 0.00 0.00 0.00 0.00 0.00 0.00 0.00 0.00 0.00 0.00 0.00 0.00 0.02 0.00 0.00 0.00 0.00 0.00 0.00 0.00 0.00 0.00 0.00 0.00 0.00 0.00 0.00 0.00 0.00 0.00 0.00
0.00 0.00 0.00 0.00 0.00 0.00 0.00 0.00 0.00 0.00 0.00 0.00 0.00 0.01 0.04 0.01 0.00 0.00 0.00 0.00 0.00 0.00 0.00 0.00 0.00 0.00 0.00 0.00 0.00 0.00 0.00 0.00
0.00 0.00 0.00 0.00 0.00 0.00 0.00 0.00 0.00 0.00 0.00 0.00 0.00 0.00 0.03 0.04 0.00 0.00 0.00 0.00 0.00 0.00 0.00 0.00 0.00 0.00 0.00 0.00 0.00 0.00 0.00 0.00
0.00 0.00 0.00 0.00 0.00 0.00 0.00 0.00 0.00 0.00 0.00 0.00 0.00 0.01 0.05 0.15 0.10 0.03 0.00 0.00 0.00 0.00 0.00 0.00 0.00 0.00 0.00 0.00 0.00 0.00 0.00 0.01
0.00 0.00 0.00 0.00 0.00 0.00 0.00 0.00 0.00 0.00 0.00 0.00 0.00 0.01 0.04 0.08 0.13 0.09 0.01 0.00 0.00 0.00 0.00 0.00 0.00 0.00 0.00 0.00 0.00 0.00 0.00 0.00
0.04 0.09 0.03 0.00 0.00 0.00 0.00 0.00 0.00 0.00 0.00 0.00 0.00 0.00 0.00 0.01 0.08 0.19 0.07 0.01 0.00 0.00 0.00 0.00 0.00 0.00 0.00 0.00 0.00 0.00 0.00 0.00
0.11 0.12 0.02 0.01 0.03 0.01 0.00 0.00 0.00 0.00 0.00 0.00 0.00 0.00 0.01 0.03 0.07 0.17 0.20 0.06 0.01 0.00 0.00 0.00 0.00 0.00 0.00 0.00 0.00 0.00 0.00 0.00
0.07 0.10 0.04 0.04 0.08 0.05 0.02 0.00 0.00 0.00 0.00 0.00 0.00 0.00 0.01 0.05 0.08 0.08 0.17 0.16 0.03 0.00 0.00 0.00 0.00 0.00 0.00 0.00 0.00 0.00 0.00 0.00
0.04 0.12 0.06 0.06 0.10 0.07 0.05 0.03 0.02 0.00 0.00 0.00 0.00 0.00 0.01 0.05 0.10 0.07 0.04 0.07 0.05 0.00 0.00 0.00 0.00 0.00 0.00 0.00 0.00 0.00 0.00 0.01
0.06 0.16 0.07 0.05 0.08 0.14 0.12 0.05 0.03 0.02 0.01 0.00 0.00 0.00 0.00 0.03 0.06 0.10 0.07 0.06 0.06 0.01 0.02 0.00 0.00 0.00 0.00 0.02 0.00 0.00 0.01 0.02
0.08 0.20 0.12 0.04 0.05 0.14 0.16 0.09 0.04 0.04 0.04 0.01 0.01 0.01 0.00 0.01 0.02 0.23 0.23 0.13 0.11 0.05 0.03 0.02 0.05 0.03 0.04 0.04 0.01 0.00 0.01 0.02
0.09 0.25 0.28 0.09 0.04 0.08 0.14 0.11 0.07 0.05 0.12 0.12 0.16 0.25 0.31 0.22 0.14 0.13 0.47 0.21 0.13 0.05 0.07 0.10 0.15 0.21 0.23 0.16 0.08 0.03 0.01 0.01
0.10 0.15 0.33 0.21 0.09 0.09 0.09 0.07 0.08 0.09 0.15 0.21 0.18 0.16 0.30 0.28 0.39 0.37 0.37 0.31 0.17 0.05 0.12 0.14 0.19 0.24 0.30 0.25 0.23 0.18 0.12 0.05
0.10 0.22 0.61 0.49 0.26 0.15 0.10 0.03 0.03 0.05 0.09 0.15 0.19 0.21 0.31 0.25 0.20 0.28 0.24 0.23 0.21 0.09 0.24 0.34 0.22 0.21 0.19 0.13 0.15 0.14 0.11 0.05
0.07 0.27 0.75 0.72 0.46 0.23 0.14 0.06 0.01 0.01 0.02 0.08 0.14 0.16 0.23 0.23 0.22 0.16 0.18 0.17 0.13 0.13 0.10 0.11 0.19 0.21 0.19 0.17 0.15 0.10 0.06 0.06
0.04 0.14 0.38 0.73 0.58 0.38 0.20 0.11 0.03 0.03 0.04 0.21 0.62 0.26 0.25 0.22 0.24 0.23 0.13 0.13 0.16 0.22 0.20 0.14 0.16 0.17 0.16 0.17 0.22 0.22 0.12 0.07
0.00 0.09 0.17 0.43 0.43 0.36 0.27 0.27 0.18 0.20 0.24 0.20 0.35 0.31 0.19 0.19 0.21 0.26 0.24 0.21 0.15 0.12 0.17 0.19 0.21 0.22 0.22 0.20 0.23 0.30 0.28 0.18
0.00 0.02 0.07 0.13 0.18 0.16 0.15 0.13 0.13 0.13 0.41 0.35 0.17 0.27 0.37 0.23 0.21 0.18 0.21 0.27 0.29 0.20 0.17 0.24 0.31 0.30 0.31 0.45 0.37 0.25 0.26 0.26
0.00 0.00 0.01 0.01 0.04 0.08 0.07 0.03 0.02 0.02 0.05 0.10 0.30 0.17 0.15 0.20 0.20 0.19 0.13 0.19 0.28 0.31 0.31 0.18 0.18 0.24 0.31 0.48 1.09 0.95 0.40 0.34

GFSFLT1_prec_precacc6_144.txt.gz
Total_Precipitation_Accumulation
0.00 0.00 0.00 0.00 0.00 0.00 0.00 0.00 0.00 0.00 0.00 0.00 0.00 0.04 0.05 0.02 0.01 0.00 0.00 0.00 0.00 0.00 0.00 0.00 0.00 0.00 0.00 0.00 0.00 0.00 0.00 0.00
0.00 0.00 0.00 0.00 0.00 0.00 0.00 0.00 0.00 0.00 0.00 0.00 0.00 0.01 0.07 0.09 0.03 0.04 0.01 0.00 0.00 0.00 0.00 0.00 0.00 0.00 0.00 0.00 0.00 0.00 0.00 0.00
0.00 0.00 0.00 0.00 0.00 0.00 0.00 0.00 0.00 0.00 0.00 0.00 0.00 0.00 0.03 0.06 0.07 0.05 0.12 0.04 0.00 0.00 0.00 0.00 0.00 0.00 0.00 0.00 0.00 0.00 0.00 0.00
0.00 0.00 0.00 0.00 0.00 0.00 0.00 0.00 0.00 0.00 0.00 0.00 0.00 0.00 0.05 0.17 0.16 0.15 0.11 0.25 0.01 0.00 0.00 0.00 0.00 0.00 0.00 0.00 0.00 0.00 0.00 0.00
0.00 0.00 0.00 0.00 0.00 0.00 0.00 0.00 0.00 0.00 0.00 0.00 0.00 0.00 0.03 0.09 0.19 0.20 0.17 0.34 0.14 0.00 0.00 0.00 0.00 0.00 0.00 0.00 0.00 0.00 0.00 0.00
0.00 0.00 0.00 0.00 0.00 0.00 0.00 0.00 0.00 0.00 0.00 0.00 0.00 0.00 0.00 0.01 0.08 0.27 0.31 0.35 0.53 0.06 0.00 0.00 0.00 0.00 0.00 0.00 0.00 0.00 0.00 0.00
0.00 0.00 0.00 0.00 0.00 0.00 0.00 0.00 0.00 0.00 0.00 0.00 0.00 0.00 0.01 0.03 0.07 0.18 0.33 0.37 0.34 0.25 0.07 0.01 0.00 0.00 0.00 0.00 0.00 0.00 0.00 0.00
0.00 0.00 0.01 0.00 0.01 0.01 0.01 0.01 0.00 0.00 0.00 0.00 0.00 0.00 0.01 0.05 0.08 0.08 0.22 0.43 0.56 0.29 0.14 0.05 0.00 0.01 0.00 0.00 0.00 0.00 0.00 0.00
0.00 0.01 0.03 0.01 0.03 0.04 0.05 0.04 0.02 0.01 0.00 0.00 0.00 0.00 0.01 0.05 0.12 0.10 0.07 0.18 0.63 0.88 0.54 0.16 0.05 0.03 0.01 0.00 0.00 0.00 0.00 0.00
0.00 0.01 0.04 0.01 0.03 0.09 0.13 0.12 0.05 0.02 0.01 0.00 0.00 0.00 0.01 0.03 0.10 0.22 0.13 0.21 0.26 1.02 1.40 0.64 0.14 0.11 0.04 0.01 0.01 0.00 0.00 0.02
0.00 0.00 0.03 0.01 0.02 0.08 0.17 0.15 0.06 0.06 0.05 0.02 0.02 0.01 0.00 0.00 0.03 0.42 0.64 0.35 0.22 0.34 0.74 0.71 0.33 0.11 0.09 0.02 0.01 0.01 0.00 0.01
0.00 0.01 0.04 0.03 0.01 0.04 0.12 0.12 0.08 0.07 0.13 0.12 0.11 0.21 0.27 0.26 0.24 0.35 0.88 0.57 0.31 0.11 0.14 0.16 0.17 0.07 0.10 0.13 0.04 0.02 0.01 0.01
0.00 0.01 0.03 0.07 0.02 0.03 0.04 0.07 0.06 0.08 0.17 0.28 0.25 0.21 0.35 0.43 0.58 0.65 1.13 1.20 0.60 0.34 0.14 0.05 0.06 0.08 0.12 0.17 0.15 0.13 0.11 0.04
0.00 0.02 0.07 0.17 0.12 0.06 0.04 0.03 0.02 0.06 0.10 0.21 0.31 0.33 0.41 0.42 0.41 0.48 0.66 1.00 0.74 0.85 0.47 0.17 0.12 0.08 0.07 0.09 0.17 0.13 0.08 0.03
0.00 0.02 0.11 0.27 0.24 0.16 0.09 0.04 0.01 0.01 0.03 0.06 0.12 0.19 0.28 0.34 0.38 0.40 0.45 0.66 1.02 1.32 1.56 0.59 0.22 0.15 0.11 0.09 0.11 0.09 0.05 0.05
0.00 0.01 0.08 0.24 0.31 0.25 0.19 0.10 0.02 0.00 0.00 0.00 0.02 0.05 0.12 0.11 0.14 0.20 0.28 0.49 0.70 0.98 1.32 1.06 0.51 0.32 0.19 0.09 0.10 0.22 0.13 0.11
0.00 0.00 0.01 0.06 0.23 0.26 0.20 0.19 0.09 0.01 0.00 0.00 0.00 0.00 0.01 0.01 0.04 0.07 0.16 0.26 0.25 0.26 0.30 0.48 0.66 0.40 0.30 0.18 0.14 0.29 0.34 0.26
0.00 0.00 0.00 0.00 0.03 0.07 0.11 0.11 0.13 0.07 0.17 0.16 0.07 0.01 0.07 0.08 0.05 0.03 0.06 0.15 0.24 0.20 0.11 0.13 0.12 0.11 0.15 0.21 0.25 0.22 0.27 0.32
0.00 0.00 0.00 0.00 0.00 0.01 0.03 0.03 0.03 0.03 0.05 0.09 0.26 0.19 0.13 0.17 0.16 0.15 0.11 0.14 0.22 0.28 0.31 0.21 0.17 0.12 0.14 0.12 0.27 0.52 0.37 0.35

GFSFLT1_prec_precacc6_147.txt.gz
Total_Precipitation_Accumulation
0.00 0.00 0.00 0.00 0.00 0.00 0.00 0.00 0.00 0.00 0.00 0.00 0.00 0.02 0.04 0.02 0.06 0.11 0.08 0.05 0.03 0.00 0.00 0.00 0.00 0.00 0.00 0.00 0.00 0.00 0.00 0.00
0.00 0.00 0.00 0.00 0.00 0.00 0.00 0.00 0.00 0.00 0.00 0.00 0.00 0.00 0.03 0.08 0.04 0.10 0.20 0.16 0.10 0.02 0.00 0.00 0.00 0.00 0.00 0.00 0.00 0.00 0.00 0.00
0.00 0.00 0.00 0.00 0.00 0.00 0.00 0.00 0.00 0.00 0.00 0.00 0.00 0.00 0.00 0.02 0.06 0.06 0.19 0.26 0.15 0.06 0.01 0.00 0.00 0.00 0.00 0.00 0.00 0.00 0.00 0.00
0.00 0.00 0.00 0.00 0.00 0.00 0.00 0.00 0.00 0.00 0.00 0.00 0.00 0.00 0.00 0.02 0.07 0.12 0.11 0.39 0.20 0.11 0.16 0.09 0.01 0.00 0.00 0.00 0.00 0.00 0.00 0.00
0.00 0.00 0.00 0.00 0.00 0.00 0.00 0.00 0.00 0.00 0.00 0.00 0.00 0.00 0.00 0.01 0.05 0.11 0.17 0.35 0.27 0.22 0.27 0.21 0.06 0.00 0.00 0.00 0.00 0.00 0.00 0.00
0.00 0.00 0.00 0.00 0.00 0.00 0.00 0.00 0.00 0.00 0.00 0.00 0.00 0.00 0.00 0.00 0.00 0.07 0.24 0.34 0.59 0.41 0.37 0.45 0.30 0.04 0.00 0.00 0.00 0.00 0.00 0.00
0.00 0.00 0.00 0.00 0.00 0.00 0.00 0.00 0.00 0.00 0.00 0.00 0.00 0.00 0.00 0.00 0.00 0.01 0.14 0.31 0.33 0.51 0.97 0.92 0.79 0.42 0.04 0.00 0.00 0.00 0.00 0.00
0.00 0.00 0.00 0.00 0.00 0.00 0.00 0.00 0.00 0.00 0.00 0.00 0.00 0.00 0.00 0.00 0.00 0.00 0.05 0.28 0.53 0.32 0.56 1.00 1.05 0.96 0.26 0.03 0.00 0.00 0.00 0.00
0.00 0.00 0.00 0.00 0.00 0.00 0.01 0.01 0.00 0.00 0.00 0.00 0.00 0.00 0.01 0.00 0.02 0.03 0.03 0.13 0.62 0.93 0.65 0.58 0.66 0.62 0.56 0.11 0.03 0.00 0.00 0.00
0.00 0.00 0.00 0.00 0.00 0.01 0.04 0.08 0.04 0.02 0.02 0.01 0.00 0.00 0.02 0.03 0.06 0.15 0.07 0.16 0.26 1.05 1.48 1.31 1.18 1.21 0.76 0.37 0.10 0.01 0.00 0.00
0.00 0.00 0.00 0.00 0.00 0.01 0.06 0.10 0.08 0.07 0.05 0.05 0.04 0.01 0.00 0.01 0.04 0.22 0.45 0.26 0.42 0.47 0.81 1.33 1.56 1.49 1.58 0.91 0.29 0.09 0.03 0.00
0.00 0.00 0.00 0.00 0.00 0.00 0.04 0.08 0.07 0.06 0.06 0.10 0.05 0.04 0.04 0.09 0.14 0.25 0.45 0.39 0.30 0.59 0.42 0.34 0.70 0.82 1.35 1.30 0.50 0.21 0.07 0.01
0.00 0.00 0.00 0.00 0.00 0.00 0.01 0.03 0.03 0.04 0.08 0.16 0.19 0.16 0.14 0.25 0.30 0.37 0.89 1.05 0.57 0.47 0.36 0.17 0.12 0.27 0.47 1.20 0.96 0.42 0.09 0.02
0.00 0.00 0.00 0.00 0.01 0.01 0.01 0.01 0.00 0.01 0.03 0.15 0.33 0.43 0.37 0.37 0.40 0.36 0.56 0.93 0.70 0.88 0.58 0.31 0.16 0.09 0.13 0.39 1.03 0.73 0.17 0.04
0.00 0.00 0.00 0.00 0.01 0.04 0.01 0.00 0.00 0.00 0.00 0.03 0.10 0.24 0.41 0.60 0.62 0.61 0.72 0.70 1.02 1.28 1.57 0.68 0.34 0.27 0.24 0.25 0.34 0.37 0.28 0.17
0.00 0.00 0.00 0.00 0.01 0.04 0.05 0.01 0.00 0.00 0.00 0.00 0.01 0.03 0.08 0.10 0.19 0.47 0.68 0.85 0.97 1.23 1.57 1.17 0.56 0.40 0.42 0.25 0.19 0.20 0.17 0.21
0.00 0.00 0.00 0.00 0.00 0.01 0.05 0.04 0.02 0.00 0.00 0.00 0.00 0.00 0.00 0.01 0.03 0.05 0.09 0.19 0.32 0.42 0.84 1.54 1.36 0.78 0.49 0.43 0.25 0.19 0.16 0.13
0.00 0.00 0.00 0.00 0.00 0.00 0.00 0.02 0.04 0.01 0.00 0.00 0.00 0.00 0.00 0.00 0.00 0.00 0.00 0.00 0.02 0.10 0.17 0.44 0.86 0.78 0.83 0.77 0.74 0.41 0.22 0.19
0.00 0.00 0.00 0.00 0.00 0.00 0.00 0.00 0.01 0.01 0.00 0.00 0.01 0.04 0.02 0.01 0.00 0.01 0.02 0.00 0.00 0.00 0.07 0.16 0.21 0.34 0.42 0.62 0.87 0.92 0.64 0.34